Year,Month,Day,Hour,Minute,Value (Times are PST for temperature in C)
2007,07,14,00,00,15.80
2007,07,14,00,01,15.80
2007,07,14,00,02,15.80
2007,07,14,00,03,15.70
2007,07,14,00,04,15.60
2007,07,14,00,05,15.60
2007,07,14,00,06,15.50
2007,07,14,00,07,15.50
2007,07,14,00,08,15.40
2007,07,14,00,09,15.40
2007,07,14,00,10,15.30
2007,07,14,00,11,15.30
2007,07,14,00,12,15.30
2007,07,14,00,13,15.20
2007,07,14,00,14,15.20
2007,07,14,00,15,15.20
2007,07,14,00,16,15.20
2007,07,14,00,17,15.10
2007,07,14,00,18,15.10
2007,07,14,00,19,15.10
2007,07,14,00,20,15.10
2007,07,14,00,21,15.00
2007,07,14,00,22,15.00
2007,07,14,00,23,15.00
2007,07,14,00,24,14.90
2007,07,14,00,25,14.90
2007,07,14,00,26,14.80
2007,07,14,00,27,14.80
2007,07,14,00,28,14.70
2007,07,14,00,29,14.60
2007,07,14,00,30,14.60
2007,07,14,00,31,14.60
2007,07,14,00,32,14.50
2007,07,14,00,33,14.50
2007,07,14,00,34,14.50
2007,07,14,00,35,14.50
2007,07,14,00,36,14.50
2007,07,14,00,37,14.50
2007,07,14,00,38,14.50
2007,07,14,00,39,14.60
2007,07,14,00,40,14.60
2007,07,14,00,41,14.60
2007,07,14,00,42,14.60
2007,07,14,00,43,14.60
2007,07,14,00,44,14.60
2007,07,14,00,45,14.60
2007,07,14,00,46,14.60
2007,07,14,00,47,14.60
2007,07,14,00,48,14.60
2007,07,14,00,49,14.70
2007,07,14,00,50,14.70
2007,07,14,00,51,14.80
2007,07,14,00,52,14.80
2007,07,14,00,53,14.80
2007,07,14,00,54,14.80
2007,07,14,00,55,14.90
2007,07,14,00,56,14.90
2007,07,14,00,57,14.90
2007,07,14,00,58,14.90
2007,07,14,00,59,14.80
2007,07,14,01,00,14.80
2007,07,14,01,01,14.80
2007,07,14,01,02,14.80
2007,07,14,01,03,14.70
2007,07,14,01,04,14.70
2007,07,14,01,05,14.70
2007,07,14,01,06,14.60
2007,07,14,01,07,14.60
2007,07,14,01,08,14.60
2007,07,14,01,09,14.50
2007,07,14,01,10,14.50
2007,07,14,01,11,14.50
2007,07,14,01,12,14.40
2007,07,14,01,13,14.40
2007,07,14,01,14,14.40
2007,07,14,01,15,14.30
2007,07,14,01,16,14.30
2007,07,14,01,17,14.30
2007,07,14,01,18,14.30
2007,07,14,01,19,14.30
2007,07,14,01,20,14.20
2007,07,14,01,21,14.20
2007,07,14,01,22,14.20
2007,07,14,01,23,14.20
2007,07,14,01,24,14.20
2007,07,14,01,25,14.20
2007,07,14,01,26,14.20
2007,07,14,01,27,14.20
2007,07,14,01,28,14.20
2007,07,14,01,29,14.20
2007,07,14,01,30,14.10
2007,07,14,01,31,14.10
2007,07,14,01,32,14.10
2007,07,14,01,33,14.10
2007,07,14,01,34,14.10
2007,07,14,01,35,14.10
2007,07,14,01,36,14.10
2007,07,14,01,37,14.10
2007,07,14,01,38,14.10
2007,07,14,01,39,14.10
2007,07,14,01,40,14.10
2007,07,14,01,41,14.10
2007,07,14,01,42,14.10
2007,07,14,01,43,14.00
2007,07,14,01,44,14.00
2007,07,14,01,45,13.90
2007,07,14,01,46,13.90
2007,07,14,01,47,13.90
2007,07,14,01,48,13.80
2007,07,14,01,49,13.80
2007,07,14,01,50,13.70
2007,07,14,01,51,13.70
2007,07,14,01,52,13.70
2007,07,14,01,53,13.70
2007,07,14,01,54,13.70
2007,07,14,01,55,13.60
2007,07,14,01,56,13.60
2007,07,14,01,57,13.60
2007,07,14,01,58,13.60
2007,07,14,01,59,13.60
2007,07,14,02,00,13.60
2007,07,14,02,01,13.60
2007,07,14,02,02,13.60
2007,07,14,02,03,13.60
2007,07,14,02,04,13.60
2007,07,14,02,05,13.60
2007,07,14,02,06,13.60
2007,07,14,02,07,13.70
2007,07,14,02,08,13.70
2007,07,14,02,09,13.70
2007,07,14,02,10,13.70
2007,07,14,02,11,13.80
2007,07,14,02,12,13.80
2007,07,14,02,13,13.80
2007,07,14,02,14,13.90
2007,07,14,02,15,13.90
2007,07,14,02,16,13.90
2007,07,14,02,17,13.90
2007,07,14,02,18,13.90
2007,07,14,02,19,13.90
2007,07,14,02,20,13.90
2007,07,14,02,21,13.90
2007,07,14,02,22,13.80
2007,07,14,02,23,13.80
2007,07,14,02,24,13.80
2007,07,14,02,25,13.80
2007,07,14,02,26,13.80
2007,07,14,02,27,13.80
2007,07,14,02,28,13.80
2007,07,14,02,29,13.70
2007,07,14,02,30,13.70
2007,07,14,02,31,13.70
2007,07,14,02,32,13.70
2007,07,14,02,33,13.70
2007,07,14,02,34,13.70
2007,07,14,02,35,13.70
2007,07,14,02,36,13.70
2007,07,14,02,37,13.70
2007,07,14,02,38,13.70
2007,07,14,02,39,13.70
2007,07,14,02,40,13.70
2007,07,14,02,41,13.70
2007,07,14,02,42,13.70
2007,07,14,02,43,13.70
2007,07,14,02,44,13.70
2007,07,14,02,45,13.60
2007,07,14,02,46,13.60
2007,07,14,02,47,13.60
2007,07,14,02,48,13.60
2007,07,14,02,49,13.60
2007,07,14,02,50,13.60
2007,07,14,02,51,13.70
2007,07,14,02,52,13.70
2007,07,14,02,53,13.70
2007,07,14,02,54,13.70
2007,07,14,02,55,13.70
2007,07,14,02,56,13.70
2007,07,14,02,57,13.70
2007,07,14,02,58,13.70
2007,07,14,02,59,13.70
2007,07,14,03,00,13.70
2007,07,14,03,01,13.70
2007,07,14,03,02,13.70
2007,07,14,03,03,13.70
2007,07,14,03,04,13.70
2007,07,14,03,05,13.70
2007,07,14,03,06,13.70
2007,07,14,03,07,13.70
2007,07,14,03,08,13.70
2007,07,14,03,09,13.70
2007,07,14,03,10,13.70
2007,07,14,03,11,13.70
2007,07,14,03,12,13.70
2007,07,14,03,13,13.70
2007,07,14,03,14,13.70
2007,07,14,03,15,13.60
2007,07,14,03,16,13.60
2007,07,14,03,17,13.60
2007,07,14,03,18,13.60
2007,07,14,03,19,13.50
2007,07,14,03,20,13.50
2007,07,14,03,21,13.50
2007,07,14,03,22,13.40
2007,07,14,03,23,13.40
2007,07,14,03,24,13.40
2007,07,14,03,25,13.40
2007,07,14,03,26,13.40
2007,07,14,03,27,13.40
2007,07,14,03,28,13.40
2007,07,14,03,29,13.40
2007,07,14,03,30,13.40
2007,07,14,03,31,13.40
2007,07,14,03,32,13.40
2007,07,14,03,33,13.50
2007,07,14,03,34,13.50
2007,07,14,03,35,13.50
2007,07,14,03,36,13.50
2007,07,14,03,37,13.50
2007,07,14,03,38,13.60
2007,07,14,03,39,13.60
2007,07,14,03,40,13.60
2007,07,14,03,41,13.60
2007,07,14,03,42,13.60
2007,07,14,03,43,13.60
2007,07,14,03,44,13.60
2007,07,14,03,45,13.70
2007,07,14,03,46,13.70
2007,07,14,03,47,13.70
2007,07,14,03,48,13.70
2007,07,14,03,49,13.70
2007,07,14,03,50,13.70
2007,07,14,03,51,13.70
2007,07,14,03,52,13.70
2007,07,14,03,53,13.70
2007,07,14,03,54,13.70
2007,07,14,03,55,13.70
2007,07,14,03,56,13.70
2007,07,14,03,57,13.70
2007,07,14,03,58,13.70
2007,07,14,03,59,13.70
2007,07,14,04,00,13.70
2007,07,14,04,01,13.70
2007,07,14,04,02,13.70
2007,07,14,04,03,13.70
2007,07,14,04,04,13.70
2007,07,14,04,05,13.70
2007,07,14,04,06,13.70
2007,07,14,04,07,13.70
2007,07,14,04,08,13.70
2007,07,14,04,09,13.70
2007,07,14,04,10,13.70
2007,07,14,04,11,13.70
2007,07,14,04,12,13.60
2007,07,14,04,13,13.60
2007,07,14,04,14,13.60
2007,07,14,04,15,13.60
2007,07,14,04,16,13.60
2007,07,14,04,17,13.60
2007,07,14,04,18,13.60
2007,07,14,04,19,13.60
2007,07,14,04,20,13.60
2007,07,14,04,21,13.60
2007,07,14,04,22,13.60
2007,07,14,04,23,13.60
2007,07,14,04,24,13.50
2007,07,14,04,25,13.50
2007,07,14,04,26,13.50
2007,07,14,04,27,13.40
2007,07,14,04,28,13.40
2007,07,14,04,29,13.30
2007,07,14,04,30,13.30
2007,07,14,04,31,13.30
2007,07,14,04,32,13.30
2007,07,14,04,33,13.30
2007,07,14,04,34,13.30
2007,07,14,04,35,13.30
2007,07,14,04,36,13.20
2007,07,14,04,37,13.20
2007,07,14,04,38,13.20
2007,07,14,04,39,13.10
2007,07,14,04,40,13.10
2007,07,14,04,41,13.10
2007,07,14,04,42,13.10
2007,07,14,04,43,13.10
2007,07,14,04,44,13.00
2007,07,14,04,45,13.00
2007,07,14,04,46,13.00
2007,07,14,04,47,13.00
2007,07,14,04,48,13.00
2007,07,14,04,49,13.00
2007,07,14,04,50,13.00
2007,07,14,04,51,13.00
2007,07,14,04,52,13.00
2007,07,14,04,53,13.00
2007,07,14,04,54,13.00
2007,07,14,04,55,13.00
2007,07,14,04,56,12.90
2007,07,14,04,57,12.90
2007,07,14,04,58,12.90
2007,07,14,04,59,12.90
2007,07,14,05,00,12.90
2007,07,14,05,01,12.80
2007,07,14,05,02,12.80
2007,07,14,05,03,12.70
2007,07,14,05,04,12.70
2007,07,14,05,05,12.60
2007,07,14,05,06,12.60
2007,07,14,05,07,12.60
2007,07,14,05,08,12.50
2007,07,14,05,09,12.50
2007,07,14,05,10,12.50
2007,07,14,05,11,12.50
2007,07,14,05,12,12.50
2007,07,14,05,13,12.50
2007,07,14,05,14,12.40
2007,07,14,05,15,12.40
2007,07,14,05,16,12.40
2007,07,14,05,17,12.40
2007,07,14,05,18,12.40
2007,07,14,05,19,12.30
2007,07,14,05,20,12.30
2007,07,14,05,21,12.40
2007,07,14,05,22,12.40
2007,07,14,05,23,12.40
2007,07,14,05,24,12.40
2007,07,14,05,25,12.30
2007,07,14,05,26,12.30
2007,07,14,05,27,12.30
2007,07,14,05,28,12.30
2007,07,14,05,29,12.30
2007,07,14,05,30,12.30
2007,07,14,05,31,12.30
2007,07,14,05,32,12.30
2007,07,14,05,33,12.20
2007,07,14,05,34,12.20
2007,07,14,05,35,12.20
2007,07,14,05,36,12.20
2007,07,14,05,37,12.20
2007,07,14,05,38,12.20
2007,07,14,05,39,12.20
2007,07,14,05,40,12.20
2007,07,14,05,41,12.20
2007,07,14,05,42,12.20
2007,07,14,05,43,12.20
2007,07,14,05,44,12.20
2007,07,14,05,45,12.20
2007,07,14,05,46,12.10
2007,07,14,05,47,12.10
2007,07,14,05,48,12.10
2007,07,14,05,49,12.10
2007,07,14,05,50,12.20
2007,07,14,05,51,12.20
2007,07,14,05,52,12.20
2007,07,14,05,53,12.30
2007,07,14,05,54,12.30
2007,07,14,05,55,12.30
2007,07,14,05,56,12.30
2007,07,14,05,57,12.40
2007,07,14,05,58,12.40
2007,07,14,05,59,12.50
2007,07,14,06,00,12.50
2007,07,14,06,01,12.60
2007,07,14,06,02,12.60
2007,07,14,06,03,12.60
2007,07,14,06,04,12.60
2007,07,14,06,05,12.70
2007,07,14,06,06,12.70
2007,07,14,06,07,12.70
2007,07,14,06,08,12.70
2007,07,14,06,09,12.70
2007,07,14,06,10,12.70
2007,07,14,06,11,12.70
2007,07,14,06,12,12.70
2007,07,14,06,13,12.70
2007,07,14,06,14,12.70
2007,07,14,06,15,12.70
2007,07,14,06,16,12.70
2007,07,14,06,17,12.70
2007,07,14,06,18,12.70
2007,07,14,06,19,12.70
2007,07,14,06,20,12.70
2007,07,14,06,21,12.80
2007,07,14,06,22,12.80
2007,07,14,06,23,12.80
2007,07,14,06,24,12.80
2007,07,14,06,25,12.80
2007,07,14,06,26,12.80
2007,07,14,06,27,12.80
2007,07,14,06,28,12.80
2007,07,14,06,29,12.80
2007,07,14,06,30,12.80
2007,07,14,06,31,12.80
2007,07,14,06,32,12.80
2007,07,14,06,33,12.80
2007,07,14,06,34,12.80
2007,07,14,06,35,12.80
2007,07,14,06,36,12.80
2007,07,14,06,37,12.80
2007,07,14,06,38,12.80
2007,07,14,06,39,12.80
2007,07,14,06,40,12.90
2007,07,14,06,41,12.90
2007,07,14,06,42,12.90
2007,07,14,06,43,12.90
2007,07,14,06,44,12.90
2007,07,14,06,45,13.00
2007,07,14,06,46,13.00
2007,07,14,06,47,13.10
2007,07,14,06,48,13.10
2007,07,14,06,49,13.10
2007,07,14,06,50,13.10
2007,07,14,06,51,13.10
2007,07,14,06,52,13.10
2007,07,14,06,53,13.20
2007,07,14,06,54,13.20
2007,07,14,06,55,13.20
2007,07,14,06,56,13.30
2007,07,14,06,57,13.30
2007,07,14,06,58,13.30
2007,07,14,06,59,13.30
2007,07,14,07,00,13.30
2007,07,14,07,01,13.30
2007,07,14,07,02,13.30
2007,07,14,07,03,13.30
2007,07,14,07,04,13.30
2007,07,14,07,05,13.30
2007,07,14,07,06,13.30
2007,07,14,07,07,13.30
2007,07,14,07,08,13.40
2007,07,14,07,09,13.40
2007,07,14,07,10,13.40
2007,07,14,07,11,13.40
2007,07,14,07,12,13.50
2007,07,14,07,13,13.50
2007,07,14,07,14,13.60
2007,07,14,07,15,13.70
2007,07,14,07,16,13.70
2007,07,14,07,17,13.80
2007,07,14,07,18,13.80
2007,07,14,07,19,13.80
2007,07,14,07,20,13.80
2007,07,14,07,21,13.80
2007,07,14,07,22,13.80
2007,07,14,07,23,13.80
2007,07,14,07,24,13.80
2007,07,14,07,25,13.80
2007,07,14,07,26,13.80
2007,07,14,07,27,13.90
2007,07,14,07,28,13.90
2007,07,14,07,29,13.90
2007,07,14,07,30,14.00
2007,07,14,07,31,14.00
2007,07,14,07,32,14.00
2007,07,14,07,33,14.00
2007,07,14,07,34,14.00
2007,07,14,07,35,14.00
2007,07,14,07,36,14.10
2007,07,14,07,37,14.10
2007,07,14,07,38,14.20
2007,07,14,07,39,14.20
2007,07,14,07,40,14.30
2007,07,14,07,41,14.30
2007,07,14,07,42,14.40
2007,07,14,07,43,14.50
2007,07,14,07,44,14.50
2007,07,14,07,45,14.50
2007,07,14,07,46,14.60
2007,07,14,07,47,14.60
2007,07,14,07,48,14.60
2007,07,14,07,49,14.70
2007,07,14,07,50,14.70
2007,07,14,07,51,14.80
2007,07,14,07,52,14.80
2007,07,14,07,53,14.90
2007,07,14,07,54,14.90
2007,07,14,07,55,14.90
2007,07,14,07,56,14.90
2007,07,14,07,57,15.00
2007,07,14,07,58,15.00
2007,07,14,07,59,15.00
2007,07,14,08,00,15.10
2007,07,14,08,01,15.20
2007,07,14,08,02,15.30
2007,07,14,08,03,15.30
2007,07,14,08,04,15.30
2007,07,14,08,05,15.40
2007,07,14,08,06,15.40
2007,07,14,08,07,15.50
2007,07,14,08,08,15.50
2007,07,14,08,09,15.60
2007,07,14,08,10,15.60
2007,07,14,08,11,15.60
2007,07,14,08,12,15.70
2007,07,14,08,13,15.70
2007,07,14,08,14,15.70
2007,07,14,08,15,15.80
2007,07,14,08,16,15.80
2007,07,14,08,17,15.90
2007,07,14,08,18,16.00
2007,07,14,08,19,16.10
2007,07,14,08,20,16.10
2007,07,14,08,21,16.10
2007,07,14,08,22,16.10
2007,07,14,08,23,16.10
2007,07,14,08,24,16.10
2007,07,14,08,25,16.10
2007,07,14,08,26,16.10
2007,07,14,08,27,16.10
2007,07,14,08,28,16.10
2007,07,14,08,29,16.10
2007,07,14,08,30,16.10
2007,07,14,08,31,15.90
2007,07,14,08,32,15.80
2007,07,14,08,33,15.80
2007,07,14,08,34,15.80
2007,07,14,08,35,15.70
2007,07,14,08,36,15.70
2007,07,14,08,37,15.70
2007,07,14,08,38,15.70
2007,07,14,08,39,15.80
2007,07,14,08,40,15.80
2007,07,14,08,41,15.80
2007,07,14,08,42,15.80
2007,07,14,08,43,15.90
2007,07,14,08,44,16.00
2007,07,14,08,45,16.10
2007,07,14,08,46,16.10
2007,07,14,08,47,16.20
2007,07,14,08,48,16.30
2007,07,14,08,49,16.30
2007,07,14,08,50,16.30
2007,07,14,08,51,16.40
2007,07,14,08,52,16.40
2007,07,14,08,53,16.40
2007,07,14,08,54,16.40
2007,07,14,08,55,16.40
2007,07,14,08,56,16.40
2007,07,14,08,57,16.40
2007,07,14,13,32,23.30
2007,07,14,13,33,23.30
2007,07,14,13,34,23.30
2007,07,14,13,35,23.40
2007,07,14,13,36,23.40
2007,07,14,13,41,23.30
2007,07,14,13,42,23.40
2007,07,14,13,43,23.40
2007,07,14,13,44,23.40
2007,07,14,13,52,23.60
2007,07,14,13,53,23.70
2007,07,14,13,54,23.70
2007,07,14,13,55,23.90
2007,07,14,13,56,24.00
2007,07,14,13,57,24.10
2007,07,14,13,58,24.10
2007,07,14,13,59,24.10
2007,07,14,14,00,24.20
2007,07,14,14,01,24.40
2007,07,14,14,02,24.50
2007,07,14,14,03,24.50
2007,07,14,14,04,24.50
2007,07,14,14,05,24.50
2007,07,14,14,06,24.40
2007,07,14,14,07,24.20
2007,07,14,14,08,24.00
2007,07,14,14,09,23.90
2007,07,14,14,10,23.70
2007,07,14,14,11,23.70
2007,07,14,14,12,23.60
2007,07,14,14,13,23.60
2007,07,14,14,14,23.60
2007,07,14,14,15,23.60
2007,07,14,14,16,23.60
2007,07,14,14,17,23.50
2007,07,14,14,18,23.40
2007,07,14,14,19,23.40
2007,07,14,14,20,23.40
2007,07,14,14,21,23.30
2007,07,14,14,22,23.30
2007,07,14,14,23,23.20
2007,07,14,14,24,23.20
2007,07,14,14,25,23.20
2007,07,14,14,26,23.20
2007,07,14,14,27,23.30
2007,07,14,14,28,23.30
2007,07,14,14,29,23.30
2007,07,14,14,30,23.30
2007,07,14,14,31,23.30
2007,07,14,14,32,23.40
2007,07,14,14,33,23.50
2007,07,14,14,34,23.60
2007,07,14,14,35,23.60
2007,07,14,14,36,23.50
2007,07,14,14,37,23.40
2007,07,14,14,38,23.40
2007,07,14,14,39,23.30
2007,07,14,14,40,23.30
2007,07,14,14,41,23.20
2007,07,14,14,42,23.10
2007,07,14,14,43,23.10
2007,07,14,14,44,23.10
2007,07,14,14,45,23.10
2007,07,14,14,46,23.10
2007,07,14,14,47,23.10
2007,07,14,14,48,23.10
2007,07,14,14,49,23.10
2007,07,14,14,50,23.20
2007,07,14,14,51,23.20
2007,07,14,14,52,23.20
2007,07,14,14,53,23.20
2007,07,14,14,54,23.10
2007,07,14,14,55,23.10
2007,07,14,14,56,22.90
2007,07,14,14,57,22.90
2007,07,14,14,58,22.90
2007,07,14,14,59,22.90
2007,07,14,15,00,22.90
2007,07,14,15,01,22.80
2007,07,14,15,02,22.80
2007,07,14,15,03,22.70
2007,07,14,15,04,22.70
2007,07,14,15,05,22.80
2007,07,14,15,06,22.80
2007,07,14,15,07,22.90
2007,07,14,15,08,22.90
2007,07,14,15,09,23.00
2007,07,14,15,10,23.10
2007,07,14,15,11,23.20
2007,07,14,15,12,23.30
2007,07,14,15,13,23.50
2007,07,14,15,14,23.60
2007,07,14,15,15,23.70
2007,07,14,15,16,23.80
2007,07,14,15,17,23.90
2007,07,14,15,18,24.00
2007,07,14,15,19,24.10
2007,07,14,15,20,24.10
2007,07,14,15,21,24.10
2007,07,14,15,22,24.20
2007,07,14,15,23,24.20
2007,07,14,15,24,24.20
2007,07,14,15,25,24.30
2007,07,14,15,26,24.30
2007,07,14,15,27,24.30
2007,07,14,15,28,24.30
2007,07,14,15,29,24.30
2007,07,14,15,30,24.30
2007,07,14,15,31,24.30
2007,07,14,15,32,24.30
2007,07,14,15,33,24.30
2007,07,14,15,34,24.20
2007,07,14,15,35,24.20
2007,07,14,15,36,24.10
2007,07,14,15,37,24.10
2007,07,14,15,38,24.10
2007,07,14,15,39,24.10
2007,07,14,15,40,24.10
2007,07,14,15,41,24.20
2007,07,14,15,42,24.20
2007,07,14,15,43,24.30
2007,07,14,15,44,24.30
2007,07,14,15,45,24.30
2007,07,14,15,46,24.40
2007,07,14,15,47,24.50
2007,07,14,15,48,24.60
2007,07,14,15,49,24.70
2007,07,14,15,50,24.80
2007,07,14,15,51,24.90
2007,07,14,15,52,24.90
2007,07,14,15,53,25.00
2007,07,14,15,54,25.00
2007,07,14,15,55,25.00
2007,07,14,15,56,25.00
2007,07,14,15,57,24.90
2007,07,14,15,58,24.90
2007,07,14,15,59,24.80
2007,07,14,16,00,24.80
2007,07,14,16,01,24.80
2007,07,14,16,02,24.80
2007,07,14,16,03,24.80
2007,07,14,16,04,24.90
2007,07,14,16,05,25.00
2007,07,14,16,06,25.00
2007,07,14,16,07,25.00
2007,07,14,16,08,25.00
2007,07,14,16,09,24.90
2007,07,14,16,10,25.00
2007,07,14,16,11,25.10
2007,07,14,16,12,25.20
2007,07,14,16,13,25.20
2007,07,14,16,14,25.20
2007,07,14,16,15,25.10
2007,07,14,16,16,25.10
2007,07,14,16,17,25.10
2007,07,14,16,18,25.10
2007,07,14,16,19,25.10
2007,07,14,16,20,25.00
2007,07,14,16,21,25.00
2007,07,14,16,22,25.00
2007,07,14,16,23,25.00
2007,07,14,16,24,25.00
2007,07,14,16,25,25.00
2007,07,14,16,26,25.10
2007,07,14,16,27,25.10
2007,07,14,16,28,25.10
2007,07,14,16,29,25.10
2007,07,14,16,30,25.10
2007,07,14,16,31,25.30
2007,07,14,16,32,25.30
2007,07,14,16,33,25.20
2007,07,14,16,34,25.20
2007,07,14,16,35,25.20
2007,07,14,16,36,25.20
2007,07,14,16,37,25.20
2007,07,14,16,38,25.30
2007,07,14,16,39,25.40
2007,07,14,16,40,25.30
2007,07,14,16,41,25.30
2007,07,14,16,42,25.30
2007,07,14,16,43,25.30
2007,07,14,16,44,25.30
2007,07,14,16,45,25.40
2007,07,14,16,46,25.50
2007,07,14,16,47,25.50
2007,07,14,16,48,25.60
2007,07,14,16,49,25.50
2007,07,14,16,50,25.50
2007,07,14,16,51,25.50
2007,07,14,16,52,25.50
2007,07,14,16,53,25.50
2007,07,14,16,54,25.40
2007,07,14,16,55,25.40
2007,07,14,16,56,25.30
2007,07,14,16,57,25.30
2007,07,14,16,58,25.20
2007,07,14,16,59,25.10
2007,07,14,17,00,25.00
2007,07,14,17,01,25.00
2007,07,14,17,02,24.90
2007,07,14,17,03,24.90
2007,07,14,17,04,24.80
2007,07,14,17,05,24.80
2007,07,14,17,06,24.70
2007,07,14,17,07,24.60
2007,07,14,17,08,24.50
2007,07,14,17,09,24.50
2007,07,14,17,10,24.50
2007,07,14,17,11,24.50
2007,07,14,17,12,24.50
2007,07,14,17,13,24.50
2007,07,14,17,14,24.50
2007,07,14,17,15,24.50
2007,07,14,17,16,24.50
2007,07,14,17,17,24.50
2007,07,14,17,18,24.50
2007,07,14,17,19,24.40
2007,07,14,17,20,24.40
2007,07,14,17,21,24.40
2007,07,14,17,22,24.40
2007,07,14,17,23,24.40
2007,07,14,17,24,24.40
2007,07,14,17,25,24.40
2007,07,14,17,26,24.40
2007,07,14,17,27,24.40
2007,07,14,17,28,24.40
2007,07,14,17,29,24.40
2007,07,14,17,30,24.30
2007,07,14,17,31,24.30
2007,07,14,17,32,24.20
2007,07,14,17,33,24.20
2007,07,14,17,34,24.10
2007,07,14,17,35,24.10
2007,07,14,17,36,24.10
2007,07,14,17,37,24.10
2007,07,14,17,38,24.10
2007,07,14,17,39,24.20
2007,07,14,17,40,24.20
2007,07,14,17,41,24.20
2007,07,14,17,42,24.20
2007,07,14,17,43,24.20
2007,07,14,17,44,24.30
2007,07,14,17,45,24.30
2007,07,14,17,46,24.40
2007,07,14,17,47,24.40
2007,07,14,17,48,24.30
2007,07,14,17,49,24.30
2007,07,14,17,50,24.30
2007,07,14,17,51,24.30
2007,07,14,17,52,24.20
2007,07,14,17,53,24.20
2007,07,14,17,54,24.20
2007,07,14,17,55,24.20
2007,07,14,17,56,24.20
2007,07,14,17,57,24.20
2007,07,14,17,58,24.20
2007,07,14,17,59,24.20
2007,07,14,18,00,24.20
2007,07,14,18,01,24.20
2007,07,14,18,02,24.20
2007,07,14,18,03,24.20
2007,07,14,18,04,24.20
2007,07,14,18,05,24.20
2007,07,14,18,06,24.20
2007,07,14,18,07,24.10
2007,07,14,18,08,24.10
2007,07,14,18,09,24.10
2007,07,14,18,10,24.00
2007,07,14,18,11,23.90
2007,07,14,18,12,23.90
2007,07,14,18,13,23.80
2007,07,14,18,14,23.70
2007,07,14,18,15,23.70
2007,07,14,18,16,23.70
2007,07,14,18,17,23.60
2007,07,14,18,18,23.50
2007,07,14,18,19,23.40
2007,07,14,18,20,23.30
2007,07,14,18,21,23.30
2007,07,14,18,22,23.30
2007,07,14,18,23,23.20
2007,07,14,18,24,23.20
2007,07,14,18,25,23.10
2007,07,14,18,26,23.10
2007,07,14,18,27,23.10
2007,07,14,18,28,23.10
2007,07,14,18,29,23.00
2007,07,14,18,30,22.90
2007,07,14,18,31,22.90
2007,07,14,18,32,22.90
2007,07,14,18,33,22.90
2007,07,14,18,34,22.90
2007,07,14,18,35,22.90
2007,07,14,18,36,22.90
2007,07,14,18,37,22.90
2007,07,14,18,38,22.90
2007,07,14,18,39,22.90
2007,07,14,18,40,22.90
2007,07,14,18,41,22.90
2007,07,14,18,42,22.80
2007,07,14,18,43,22.80
2007,07,14,18,44,22.70
2007,07,14,18,45,22.70
2007,07,14,18,46,22.60
2007,07,14,18,47,22.50
2007,07,14,18,48,22.40
2007,07,14,18,49,22.30
2007,07,14,18,50,22.20
2007,07,14,18,51,22.10
2007,07,14,18,52,22.10
2007,07,14,18,53,22.00
2007,07,14,18,54,22.00
2007,07,14,18,55,22.00
2007,07,14,18,56,21.90
2007,07,14,18,57,21.90
2007,07,14,18,58,21.80
2007,07,14,18,59,21.70
2007,07,14,19,00,21.70
2007,07,14,19,01,21.70
2007,07,14,19,02,21.60
2007,07,14,19,03,21.60
2007,07,14,19,04,21.50
2007,07,14,19,05,21.40
2007,07,14,19,06,21.30
2007,07,14,19,07,21.30
2007,07,14,19,08,21.20
2007,07,14,19,09,21.10
2007,07,14,19,10,21.00
2007,07,14,19,11,20.90
2007,07,14,19,12,20.80
2007,07,14,19,13,20.80
2007,07,14,19,14,20.70
2007,07,14,19,15,20.60
2007,07,14,19,16,20.60
2007,07,14,19,17,20.50
2007,07,14,19,18,20.50
2007,07,14,19,19,20.40
2007,07,14,19,20,20.40
2007,07,14,19,21,20.30
2007,07,14,19,22,20.30
2007,07,14,19,23,20.20
2007,07,14,19,24,20.20
2007,07,14,19,25,20.20
2007,07,14,19,26,20.20
2007,07,14,19,27,20.20
2007,07,14,19,28,20.20
2007,07,14,19,29,20.10
2007,07,14,19,30,20.10
2007,07,14,19,31,20.00
2007,07,14,19,32,19.90
2007,07,14,19,33,19.90
2007,07,14,19,34,19.90
2007,07,14,19,35,19.90
2007,07,14,19,36,19.90
2007,07,14,19,37,19.90
2007,07,14,19,38,19.90
2007,07,14,19,39,19.90
2007,07,14,19,40,19.90
2007,07,14,19,41,19.90
2007,07,14,19,42,19.80
2007,07,14,19,43,19.80
2007,07,14,19,44,19.80
2007,07,14,19,45,19.70
2007,07,14,19,46,19.70
2007,07,14,19,47,19.70
2007,07,14,19,48,19.70
2007,07,14,19,49,19.60
2007,07,14,19,50,19.60
2007,07,14,19,51,19.60
2007,07,14,19,52,19.60
2007,07,14,19,53,19.60
2007,07,14,19,54,19.60
2007,07,14,19,55,19.60
2007,07,14,19,56,19.60
2007,07,14,19,57,19.60
2007,07,14,19,58,19.60
2007,07,14,19,59,19.60
2007,07,14,20,00,19.60
2007,07,14,20,01,19.60
2007,07,14,20,02,19.60
2007,07,14,20,03,19.60
2007,07,14,20,04,19.70
2007,07,14,20,05,19.70
2007,07,14,20,06,19.70
2007,07,14,20,07,19.70
2007,07,14,20,08,19.70
2007,07,14,20,09,19.70
2007,07,14,20,10,19.70
2007,07,14,20,11,19.70
2007,07,14,20,12,19.70
2007,07,14,20,13,19.70
2007,07,14,20,14,19.70
2007,07,14,20,15,19.70
2007,07,14,20,16,19.70
2007,07,14,20,17,19.70
2007,07,14,20,18,19.60
2007,07,14,20,19,19.60
2007,07,14,20,20,19.60
2007,07,14,20,21,19.60
2007,07,14,20,22,19.60
2007,07,14,20,23,19.50
2007,07,14,20,24,19.50
2007,07,14,20,25,19.50
2007,07,14,20,26,19.40
2007,07,14,20,27,19.40
2007,07,14,20,28,19.40
2007,07,14,20,29,19.30
2007,07,14,20,30,19.30
2007,07,14,20,31,19.20
2007,07,14,20,32,19.20
2007,07,14,20,33,19.20
2007,07,14,20,34,19.10
2007,07,14,20,35,19.10
2007,07,14,20,36,19.10
2007,07,14,20,37,19.10
2007,07,14,20,38,19.10
2007,07,14,20,39,19.10
2007,07,14,20,40,19.10
2007,07,14,20,41,19.10
2007,07,14,20,42,19.10
2007,07,14,20,43,19.10
2007,07,14,20,44,19.10
2007,07,14,20,45,19.10
2007,07,14,20,46,19.00
2007,07,14,20,47,18.90
2007,07,14,20,48,18.90
2007,07,14,20,49,18.90
2007,07,14,20,50,18.90
2007,07,14,20,51,18.90
2007,07,14,20,52,18.90
2007,07,14,20,53,18.90
2007,07,14,20,54,18.90
2007,07,14,20,55,18.90
2007,07,14,20,56,18.90
2007,07,14,20,57,18.90
2007,07,14,20,58,18.90
2007,07,14,20,59,18.90
2007,07,14,21,00,18.90
2007,07,14,21,01,18.90
2007,07,14,21,02,18.90
2007,07,14,21,03,18.90
2007,07,14,21,04,18.90
2007,07,14,21,05,18.90
2007,07,14,21,06,18.90
2007,07,14,21,07,18.90
2007,07,14,21,08,18.90
2007,07,14,21,09,18.90
2007,07,14,21,10,18.90
2007,07,14,21,11,18.90
2007,07,14,21,12,18.90
2007,07,14,21,13,18.90
2007,07,14,21,14,18.90
2007,07,14,21,15,18.90
2007,07,14,21,16,18.90
2007,07,14,21,17,18.90
2007,07,14,21,18,18.90
2007,07,14,21,19,18.90
2007,07,14,21,20,18.90
2007,07,14,21,21,18.90
2007,07,14,21,22,18.90
2007,07,14,21,23,18.90
2007,07,14,21,24,18.90
2007,07,14,21,25,18.90
2007,07,14,21,26,18.90
2007,07,14,21,27,18.90
2007,07,14,21,28,18.90
2007,07,14,21,29,18.90
2007,07,14,21,30,18.90
2007,07,14,21,31,18.90
2007,07,14,21,32,18.90
2007,07,14,21,33,18.90
2007,07,14,21,34,18.90
2007,07,14,21,35,18.90
2007,07,14,21,36,18.90
2007,07,14,21,37,18.90
2007,07,14,21,38,18.70
2007,07,14,21,39,18.50
2007,07,14,21,40,18.40
2007,07,14,21,41,18.30
2007,07,14,21,42,18.20
2007,07,14,21,43,18.00
2007,07,14,21,44,17.80
2007,07,14,21,45,17.70
2007,07,14,21,46,17.40
2007,07,14,21,47,17.30
2007,07,14,21,48,17.10
2007,07,14,21,49,17.00
2007,07,14,21,50,16.90
2007,07,14,21,51,16.70
2007,07,14,21,52,16.60
2007,07,14,21,53,16.50
2007,07,14,21,54,16.40
2007,07,14,21,55,16.30
2007,07,14,21,56,16.20
2007,07,14,21,57,16.10
2007,07,14,21,58,15.90
2007,07,14,21,59,15.80
2007,07,14,22,00,15.70
2007,07,14,22,01,15.50
2007,07,14,22,02,15.40
2007,07,14,22,03,15.30
2007,07,14,22,04,15.20